User: anonymous   Login
Location: Unspecified
(0.0000°N, 0.0000°E)
Time: 23:43:47
(UTC+00:00)
Language:

Azur - Orbit

View from above orbital plane
View from above orbital plane
View from above satellite
View from above satellite

Ground track
Ground track

The orbit data is extracted from the following two-line orbital elements,

1 04221U 69097A   17349.85374565  .00004430  00000-0  21065-3 0  9995
2 04221 102.6898 295.9977 0634242  33.3504 330.5995 14.23878507275027
Epoch (UTC): 15 December 2017 20:29:23
Eccentricity: 0.0634242
inclination: 102.6898°
perigee height: 356 km
apogee height: 1268 km
right ascension of ascending node: 295.9977°
argument of perigee: 33.3504°
revolutions per day: 14.23878507
mean anomaly at epoch: 330.5995°
orbit number at epoch: 27502

The dashed part of the orbit path shows where the satellite is in the earth's shadow,  

DLR